Voltar ao catálogo

ICEYE-X36

AtivoCiênciaSSO
NORAD 59103·PAYLOAD·🇺🇸 United States

Lançado Mar 4, 2024 de Vandenberg Space Force Base

Loading…

Próximas Passagens (próximas 24 horas)

TLE

AtualizadoSource: Space-Track

Época: Sep 14, 2026, 14:29 UTC

1 59103U 24043F   26257.60403791  .00003604  00000-0  24097-3 0  9991
2 59103  97.8496  37.3752 0006332  29.2623 330.8958 15.07614001138618

Acompanhe ICEYE-X36 em tempo real com AllMySat

Download on the App Store